Probability
0 0 0 0 0 0 0 0 0 0 0 0 0 0 0 0 0 0 0 0 0 0 0 0 0 0 0 0 0 0 0 0 0 0 0 0 0 0
0 0 0 0 0 0 0 0 0 0 0 0 0 0 0 0 0 0 0 0 0 0 0 0 0 0 0 0 0 0 0 0 0 0 0 0 0 0
0 0 0 0 0 0 0 0 0 0 0 0 0 0 0 0 0 0 0 0 0 0 0 0 0 0 0 0 0 0 0 0 0 0 0 0 0 0
0 0 0 0 0 0 0 0 0 0 0 0 0 0 0 0 0 0 0 0 0 0 0 0 0 0 0 0 0 0 0 0 0 0 0 0 0 0
0 0 0 0 0 0 0 0 0 0 0 0 0 0 0 0 0 0 0 0 0 0 0 0 0 0 0 0 0 0 0 0 0 0 0 0 0 0
0 0 0 0 0 0 0 0 0 0 0 0 0 0 0 0 0 0 0 0 0 0 0 0 0 0 0 0 0 0 0 0 0 0 0 0 0 0
0 0 0 0 0 0 0 0 0 0 0 0 0 0 0 0 0 0 0 0 0 0 0 0 0 0 0 0 0 0 0 0 0 0 0 0 0 0
0 0 0 0 0 0 0 0 0 0 0 0 0 0 0 0 0 0 0 0 0 0 0 0 0 0 0 0 0 0 0 0 0 0 0 0 0 0
0 0 0 0 0 0 0 0 0 0 0 0 0 0 0 0 0 0 0 0 0 0 0 0 0 0 0 0 0 0 0 0 0 0 0 0 0 0
0 0 0 0 0 0 0 0 0 0 0 0 0 0 0 0 0 0 0 0 0 0 0 0 0 0 0 0 0 0 0 0 0 0 0 0 0 0
0 0 0 0 0 0 0 0 0 0 0 0 0 0 0 0 0 0 0 0 0 0 0 0 0 0 0 0 0 0 0 0 0 0 0 0 0 0
0 0 0 0 0 0 0 0 0 0 0 0 0 0 0 0 0 0 0 0 0 0 0 0 0 0 0 0 0 0 0 0 0 0 0 0 0 0
0 0 0 0 0 0 0 0 0 0 0 0 0 0 0 0 0 0 0 0 0 0 0 0 0 0 0 0 0 0 0 0 0 0 0 0 0 0
0 0 0 0 0 0 0 0 0 0 0 0 0 0 0 0 0 0 0 0 0 0 0 0 0 0 0 0 0 0 0 0 0 0 0 0 0 0
0 0 0 0 0 0 0 0 0 0 0 0 0 0 0 0 0 0 0 0 0 0 0 0 0 0 0 0 0 0 0 0 0 0 0 0 0 0
0 0 0 0 0 0 0 0 0 0 0 0 0 0 0 0 0 0 0 0 0 0 0 0 0 0 0 0 0 0 0 0 0 0 0 0 0 0
0 0 0 0 0 0 0 0 0 0 0 0 0 0 0 0 0 0 0 0 0 0 0 0 0 0 0 0 0 0 0 0 0 0 0 0 0 0
0 0 0 0 0 0 0 0 0 0 0 0 0 0 0 0 0 0 0 0 0 0 0 0 0 0 0 0 0 0 0 0 0 0 0 0 0 0
0 0 0 0 0 0 0 0 0 0 0 0 0 0 0 0 0 0 0 0 0 0 0 0 0 0 0 0 0 0 0 0 0 0 0 0 0 0
0 0 0 0 0 0 0 0 0 0 0 0 0 0 0 0 0 0 0 0 0 0 0 0 0 0 0 0 0 0 0 0 0 0 0 0 0 0
0 0 0 0 0 0 0 0 0 0 0 0 0 0 0 0 0 0 0 0 0 0 0 0 0 0 0 0 0 0 0 0 0 0 0 0 0 0
0 0 0 0 0 0 0 0 0 0 0 0 0 0 0 0 0 0 0 0 0 0 0 0 0 0 0 0 0 0 0 0 0 0 0 0 0 0
0 0 0 0 0 0 0 0 0 0 0 0 0 0 0 0 0 0 0 0 0 0 0 0 0 0 0 0 0 0 0 0 0 0 0 0 0 0
Wind_Speed
1 1 1 2 1 2 2 3 3 3 4 4 3 3 3 4 10 8 7 12 13 12 11 10 9 8 8 7 7 6 6 5 5 5 5 6 6 6
1 0 1 1 2 2 2 2 3 4 3 4 4 3 3 3 9 8 7 15 17 15 14 13 11 10 9 8 8 8 7 7 7 6 6 6 7 7
3 5 5 4 3 3 3 3 3 4 4 4 2 2 2 3 4 4 4 6 9 16 16 15 14 12 11 11 10 9 9 9 8 7 6 6 7 8
4 3 4 4 4 3 3 3 3 4 4 4 3 2 3 2 3 4 3 5 6 15 18 16 15 14 13 12 12 11 10 10 9 9 8 7 7 8
4 3 3 1 2 2 2 2 2 3 3 3 4 3 3 2 2 2 3 2 3 7 15 15 14 14 14 14 13 13 12 12 11 10 9 8 8 8
4 4 3 1 2 2 1 1 1 2 2 3 3 2 3 2 2 2 3 3 2 2 6 9 12 15 16 16 15 15 14 13 13 12 11 10 9 9
3 2 2 5 6 3 2 2 2 1 1 1 2 1 2 2 3 2 3 2 2 1 2 4 5 6 8 13 17 17 16 15 14 13 12 11 11 10
3 1 3 4 5 5 3 2 1 1 1 1 0 1 1 2 2 2 1 1 2 1 0 2 1 3 4 4 10 16 17 16 14 13 13 12 12 11
3 2 2 3 5 4 6 6 4 4 2 1 1 0 0 1 3 2 1 1 1 0 1 2 2 2 2 2 5 5 10 12 12 12 13 13 12 12
4 3 1 1 1 2 0 2 2 4 4 2 2 3 3 2 2 2 2 1 1 0 1 1 2 2 3 3 6 6 3 3 5 8 9 11 11 11
4 4 5 5 6 6 3 2 3 2 3 4 5 5 5 5 4 3 2 1 0 1 1 0 1 2 2 2 3 5 4 3 4 6 7 7 8 8
5 4 9 7 7 7 4 3 3 2 2 2 2 2 1 2 2 1 1 1 0 0 1 1 1 2 2 2 1 2 2 3 4 5 6 6 5 4
5 4 5 7 6 6 4 2 2 3 2 2 2 2 2 2 2 1 1 1 0 0 1 2 0 1 1 2 2 1 1 2 2 2 3 4 4 4
3 2 3 5 5 5 2 2 3 3 1 1 2 2 2 1 1 1 1 1 1 2 3 2 1 0 1 2 2 2 2 2 1 1 1 1 4 7
2 3 3 4 5 3 3 3 2 2 0 1 2 2 1 2 2 2 2 2 2 2 3 2 1 0 0 1 2 2 3 2 0 1 1 1 2 2
4 3 2 2 2 3 1 2 2 0 1 2 2 2 2 2 2 2 2 1 1 1 1 1 1 1 1 2 2 3 2 2 2 2 2 2 2 2
5 4 4 3 2 2 2 2 2 3 3 3 3 3 2 2 2 2 2 3 3 2 2 2 2 2 3 2 2 2 3 3 3 3 3 3 3 3
7 6 6 7 6 5 5 4 4 4 4 4 4 4 3 3 3 3 3 3 3 3 3 3 4 4 4 5 6 4 3 3 4 4 3 3 3 3
8 7 7 7 7 7 6 6 6 5 5 5 5 4 4 4 4 4 4 4 4 3 3 3 4 4 4 3 4 6 4 3 4 4 4 3 3 3
7 6 6 6 6 6 6 6 6 6 6 6 5 5 5 4 4 4 4 4 4 3 4 4 3 3 2 2 2 3 5 3 3 4 4 4 3 3
5 6 6 6 6 6 6 6 6 6 6 5 5 5 4 4 4 4 4 5 4 3 3 3 3 3 2 2 3 3 2 3 2 1 3 3 4 4
5 5 5 6 5 5 5 5 5 5 5 5 4 4 4 4 4 4 4 3 3 3 3 2 3 4 3 3 3 3 4 4 3 3 2 1 2 3
4 4 4 4 4 4 4 5 5 4 4 4 4 4 3 3 3 3 3 3 3 4 3 3 3 3 3 3 3 3 5 5 4 4 4 4 3 3
Wind_Direction
175 165 178 193 206 221 216 194 191 225 245 243 233 212 194 176 168 182 175 188 191 196 198 201 204 209 214 217 218 216 218 223 236 250 264 275 283 291
105 341 269 229 219 220 233 222 203 203 237 243 226 217 188 177 169 186 192 190 198 199 201 203 206 211 216 220 222 219 220 225 233 243 255 269 277 282
214 210 218 215 210 212 223 228 226 210 227 253 233 212 185 178 165 216 207 183 197 204 205 206 207 210 216 222 225 224 225 230 236 243 252 265 274 278
268 251 219 199 204 216 215 228 232 224 215 239 240 217 212 205 181 212 220 198 195 205 207 209 210 211 216 222 226 227 227 229 233 239 249 262 275 282
247 263 273 225 196 207 219 234 238 245 223 223 239 224 223 223 215 234 247 245 235 201 202 210 214 215 218 222 225 227 228 228 229 230 238 250 265 278
238 230 231 186 96 63 34 6 291 260 243 228 236 230 220 213 186 214 247 249 248 213 195 205 215 221 225 227 229 230 230 230 229 228 229 233 244 256
261 259 115 103 104 94 67 20 358 319 270 233 236 228 206 177 201 202 216 248 262 234 205 207 203 213 223 232 235 235 232 230 230 229 228 229 232 242
281 255 143 152 150 158 176 205 258 330 351 353 155 209 239 205 183 165 185 188 257 320 8 277 216 226 227 221 233 231 231 230 230 229 229 229 230 235
291 277 224 143 163 193 201 215 222 221 234 348 17 159 217 184 156 158 182 185 203 6 40 312 326 311 316 349 337 254 232 232 233 233 233 232 231 231
306 307 313 154 124 41 123 221 206 184 203 215 57 65 70 79 112 142 148 123 38 60 102 296 337 342 358 10 31 42 20 296 266 255 247 241 236 234
335 15 32 59 55 39 12 2 51 93 111 90 93 94 85 74 69 73 79 85 311 264 111 12 343 339 348 2 16 27 20 349 313 295 281 268 254 244
348 47 67 69 58 33 13 24 53 42 69 135 134 142 149 140 111 78 109 116 320 319 112 110 358 0 344 330 331 345 352 339 321 306 296 290 276 251
356 24 53 49 45 32 20 35 50 1 357 53 98 98 74 90 136 165 124 137 135 239 162 147 77 23 343 317 311 292 285 296 317 318 300 276 259 238
342 10 38 17 2 346 352 29 6 349 330 61 93 93 86 72 63 93 112 121 118 141 158 152 135 157 337 319 308 307 285 265 259 293 310 277 260 252
324 330 318 324 327 309 260 270 295 282 298 90 102 100 96 91 67 46 42 57 71 94 128 152 170 249 261 284 303 312 317 314 321 328 318 301 286 269
350 337 310 312 312 310 301 232 240 272 96 105 110 102 88 73 58 52 48 41 62 30 37 137 204 266 297 294 297 306 321 333 347 336 329 320 315 312
5 16 24 21 20 22 32 43 59 72 69 71 80 78 73 73 57 43 38 35 51 41 13 349 322 287 257 267 324 350 11 13 2 353 355 342 343 9
38 36 34 31 32 34 37 40 47 60 65 69 68 68 67 66 59 40 36 45 48 43 33 12 5 1 3 33 42 41 26 8 353 356 7 357 346 23
44 39 36 34 33 33 37 43 45 44 52 57 57 52 53 55 55 50 40 36 34 36 34 26 28 30 24 357 1 41 30 3 357 358 1 359 336 2
39 37 34 33 34 34 34 37 40 39 42 45 44 42 43 49 50 50 49 34 26 30 30 27 31 25 9 320 319 14 39 34 10 359 349 344 350 60
36 34 27 26 28 31 30 34 41 41 40 41 37 35 35 44 45 44 47 40 36 31 28 14 351 333 312 6 19 5 0 40 66 44 355 357 357 7
42 39 32 28 26 25 27 30 38 39 34 37 31 26 27 36 39 41 42 40 32 24 17 360 359 11 28 38 26 8 8 7 26 56 70 70 28 6
53 47 38 28 26 24 26 34 40 37 29 24 23 19 22 26 28 36 35 42 35 16 12 12 7 15 22 33 43 39 31 18 12 24 18 6 357 324